date,week,precipitation,daylight,hPa,humidity,cloud
2020/1/1,水,0,7.4,1018,49,3
2020/1/2,木,0,5.7,1017.9,60,1
2020/1/3,金,0,8.8,1013.3,63,0
2020/1/4,土,0,3.4,1011,53,5.5
2020/1/5,日,1,8.9,1018.2,61,0
2020/1/6,月,0,7.7,1022.4,44,5.8
2020/1/7,火,2,0.5,1021.7,71,9.5
2020/1/8,水,11.5,1.1,1000.6,97,7.5
2020/1/9,木,0,8.4,1005.8,47,2.5
2020/1/10,金,0,7.7,1012.8,59,4.3
2020/1/11,土,0,3.4,1012.2,68,5.3
2020/1/12,日,0,1.2,1008.1,72,7.8
2020/1/13,月,0,9,1008.5,68,2.5
2020/1/14,火,0,7,1016.4,71,6.8
2020/1/15,水,15,1.8,1013.3,87,6.5
2020/1/16,木,0,3.9,1018.1,49,6.8
2020/1/17,金,0,4.3,1016,59,10
2020/1/18,土,8.5,0,1010.5,84,10
2020/1/19,日,0,8,1011.3,64,5.3
2020/1/20,月,0,9.1,1009.1,62,2.3
2020/1/21,火,0,9.2,1017.2,46,0
2020/1/22,水,0,0.7,1025.1,55,7.5
2020/1/23,木,2.5,0,1018.2,84,9.8
2020/1/24,金,0,0.6,1019,73,8.8
2020/1/25,土,0,0.7,1024.6,47,9.8
2020/1/26,日,6,0,1023.7,78,10
2020/1/27,月,5,0,1022.7,72,10
2020/1/28,火,55.5,0,1014.5,98,10
2020/1/29,水,28,5.8,998.9,83,7.8
2020/1/30,木,0,8.6,995.7,61,1.8
2020/1/31,金,0,6.9,1001.6,44,3
2020/2/1,土,0,9.2,1011.6,40,0
2020/2/2,日,0,9.2,1018.3,40,5
2020/2/3,月,0,4.6,1014.3,52,9.5
2020/2/4,火,0,1.9,1016.4,54,6.3
2020/2/5,水,0,9.1,1009.5,49,2.3
2020/2/6,木,0,9.4,1019.7,34,2.5
2020/2/7,金,0,8.4,1022.8,48,7.3
2020/2/8,土,0,9.2,1010.6,45,5
2020/2/9,日,0,9.7,1013.1,37,0
2020/2/10,月,0,7.3,1011.8,46,2.8
2020/2/11,火,0,9.7,1022.7,46,0.3
2020/2/12,水,0,8.8,1022.1,51,7.5
2020/2/13,木,0,5.7,1011.8,61,5
2020/2/14,金,0,3.1,1015.4,75,7.5
2020/2/15,土,0,2.4,1017,66,7.3
2020/2/16,日,8.5,0,1006,91,10
2020/2/17,月,0,3.5,997.7,86,7.3
2020/2/18,火,0,9.2,1008.2,44,2.8
2020/2/19,水,0,9.5,1021.7,44,4
2020/2/20,木,0,4.6,1025.7,58,7.8
2020/2/21,金,0,9.1,1030.5,64,2.8
2020/2/22,土,2.5,4.1,1016.7,77,6.8
2020/2/23,日,0,9.7,1012.9,35,1.8
2020/2/24,月,0,9.5,1018.3,50,3.3
2020/2/25,火,0,3.6,1016.2,60,10
2020/2/26,水,3,0,1011.6,88,10
2020/2/27,木,0,10.6,1014.9,49,0.8
2020/2/28,金,0,9,1019.7,48,6
2020/2/29,土,1,6,1015,64,8
2020/3/1,日,0.5,9.5,1012.7,65,7.3
2020/3/2,月,10,0,1013.5,94,10
2020/3/3,火,0,10.1,1017.3,59,6.5
2020/3/4,水,1.5,0,1015.4,85,10
2020/3/5,木,1,5.9,1003.7,53,4.8
2020/3/6,金,0,10.7,1014.4,33,0.3
2020/3/7,土,1.5,0,1020.2,68,10
2020/3/8,日,6,0,1015.5,94,10
2020/3/9,月,0,3.9,1013.7,79,7.5
2020/3/10,火,24.5,0,1000.1,97,7.5
2020/3/11,水,0,7.9,997.3,58,6.3
2020/3/12,木,0,10,1016.7,48,1
2020/3/13,金,0,7,1012.5,62,7.5
2020/3/14,土,25,0,1006.1,88,9.3
2020/3/15,日,0,8.4,1002.6,67,4
2020/3/16,月,0,9.2,1003.9,55,2
2020/3/17,火,0,8.4,1012.1,47,2.5
2020/3/18,水,0,10.7,1010,52,0.3
2020/3/19,木,1,11,1006.7,65,2.5
2020/3/20,金,0,8.9,999.7,48,3
2020/3/21,土,0,11,1007.9,44,0.5
2020/3/22,日,0,9.8,1003.9,49,6.8
2020/3/23,月,0,2.4,1007.3,59,8.5
2020/3/24,火,0,11.3,1011.6,44,2.5
2020/3/25,水,0,11.9,1017.4,45,0.5
2020/3/26,木,0,10.6,1017.9,50,3.5
2020/3/27,金,0,1.4,1012.7,69,8
2020/3/28,土,8.5,0.9,1008.8,83,10
2020/3/29,日,51.5,0,1016.7,96,10
2020/3/30,月,0,1,1020.1,72,10
2020/3/31,火,0,0,1019.4,79,10
2020/4/1,水,31,0,1003.9,97,10
2020/4/2,木,0,11.9,1003.7,45,3.8
2020/4/3,金,0,9.9,1016.8,50,4.8
2020/4/4,土,0,11.5,1010.6,62,0.5
2020/4/5,日,0,1.2,1008.4,73,6.3
2020/4/6,月,0,11.3,1011.1,43,4.5
2020/4/7,火,0,8.9,1010.6,50,6.5
2020/4/8,水,0,11.7,1009.5,60,2
2020/4/9,木,0.5,8.3,1012.6,62,5
2020/4/10,金,0,9.9,1014.6,49,6.8
2020/4/11,土,0.5,9,1015.3,48,6.5
2020/4/12,日,6.5,0.6,1011,84,10
2020/4/13,月,132,0,993,97,10
2020/4/14,火,1.5,11.8,1002.2,54,2.5
2020/4/15,水,0,9.1,1008.9,48,7.3
2020/4/16,木,0.5,5.9,1014.4,66,10
2020/4/17,金,0.5,4.8,1021.3,62,9.5
2020/4/18,土,89.5,0.7,1006.4,96,8
2020/4/19,日,0,11.3,1009.5,64,4.3
2020/4/20,月,15,0,1008.8,94,9.8
2020/4/21,火,0,1.6,1003.7,82,7
2020/4/22,水,0,3.4,1001.3,65,10
2020/4/23,木,1,10,1004.4,56,6.5
2020/4/24,金,0.5,7.3,1007.2,55,7
2020/4/25,土,0,12.5,1014,61,0
2020/4/26,日,0,10.5,1009.7,52,7.5
2020/4/27,月,12.5,1.4,1013.4,78,10
2020/4/28,火,5,5,1014.6,85,9.5
2020/4/29,水,0,12.2,1015.4,69,1.8
2020/4/30,木,0,11.7,1015.7,66,0
2020/5/1,金,0,11.9,1010.9,67,4
2020/5/2,土,0,12.2,1009.4,73,0.8
2020/5/3,日,0,7.1,1009.7,70,9.8
2020/5/4,月,2,1.5,1005.3,87,10
2020/5/5,火,0,7.7,1006.4,73,6.5
2020/5/6,水,19,0,1009.1,90,10
2020/5/7,木,0.5,12.1,1011.8,61,4.3
2020/5/8,金,0,10.7,1018.4,48,3.8
2020/5/9,土,0,3.4,1014.8,64,10
2020/5/10,日,1,1,1002.7,82,10
2020/5/11,月,0.5,9.1,999.1,80,5.5
2020/5/12,火,0,4.7,1002.4,75,10
2020/5/13,水,0,11.1,1003.1,55,4.5
2020/5/14,木,0,12.5,1013.6,40,4
2020/5/15,金,0,8.1,1015,52,7.5
2020/5/16,土,24,0,1007.8,89,10
2020/5/17,日,0,11.7,1000.2,74,5.8
2020/5/18,月,2,0,1005.5,91,10
2020/5/19,火,54.5,0,997.1,97,10
2020/5/20,水,3,0,1005.1,90,10
2020/5/21,木,0.5,0,1013,89,10
2020/5/22,金,1,0,1014.9,89,10
2020/5/23,土,0,2.8,1011.8,86,8.5
2020/5/24,日,0,11,1011.6,75,6.3
2020/5/25,月,0,6.6,1007.6,72,9.3
2020/5/26,火,0.5,0.2,1005.1,87,9.5
2020/5/27,水,0,4.4,1000.5,81,9.8
2020/5/28,木,9.5,3.7,1004.7,69,8.8
2020/5/29,金,0,12.9,1010.6,65,3.5
2020/5/30,土,0,8.9,1016.8,71,7
2020/5/31,日,0,0.2,1015.9,73,8
2020/6/1,月,4,0,1009.7,93,10
2020/6/2,火,0,4.1,1004.1,87,10
2020/6/3,水,0,6.2,1002.5,76,9.8
2020/6/4,木,0,5.4,1002.8,79,10
2020/6/5,金,0,8.1,1002.5,74,9.3
2020/6/6,土,6.5,1.9,1003.8,77,10
2020/6/7,日,0.5,8.6,1007,67,7.5
2020/6/8,月,0,8.9,1013.6,73,5.8
2020/6/9,火,0,13,1015.1,68,7.3
2020/6/10,水,0,11.1,1012,65,4.8
2020/6/11,木,10,3.5,1004.1,85,9.5
2020/6/12,金,5.5,4,1001.5,84,9
2020/6/13,土,35.5,0,1004.9,99,10
2020/6/14,日,5.5,0,1002.4,99,10
2020/6/15,月,0,7.3,997.5,81,9.5
2020/6/16,火,0,8,997.9,68,7.3
2020/6/17,水,0,13.1,1003.7,63,4
2020/6/18,木,2,0,1004.3,82,10
2020/6/19,金,50,0,999.1,99,10
2020/6/20,土,0,9.3,1004.3,76,6.5
2020/6/21,日,2.5,1.4,1009,83,10
2020/6/22,月,27.5,0,1006.1,95,10
2020/6/23,火,3,2.7,1007.4,86,9.3
2020/6/24,水,0,1.9,1010.4,84,9.5
2020/6/25,木,14.5,0,1006.7,94,10
2020/6/26,金,0,4.9,1001.7,85,9
2020/6/27,土,0,2.6,1001.5,83,10
2020/6/28,日,30,0,998.3,96,10
2020/6/29,月,0,10.3,1003.6,69,3.5
2020/6/30,火,15.5,0,1002,90,9.8
2020/7/1,水,21,0,999.9,89,10
2020/7/2,木,0.5,11.7,1003.3,72,5.5
2020/7/3,金,6,1.7,1011.2,80,10
2020/7/4,土,25.5,0.1,1002.6,90,10
2020/7/5,日,3.5,1.7,1002.9,87,10
2020/7/6,月,40.5,0.3,1005.6,92,10
2020/7/7,火,0.5,0.2,1004.2,84,10
2020/7/8,水,3,1.5,1002.3,83,10
2020/7/9,木,14,0,1006.4,96,10
2020/7/10,金,0.5,0,1008.3,90,9.8
2020/7/11,土,2,2.3,1002.8,82,10
2020/7/12,日,0.5,4.8,1001.2,81,10
2020/7/13,月,6,0.4,1007.8,90,10
2020/7/14,火,6,0,999.5,97,10
2020/7/15,水,6.5,0,998.2,97,10
2020/7/16,木,0.5,0.1,1004.4,86,10
2020/7/17,金,34.5,0,1008.4,98,10
2020/7/18,土,20,0,1009,100,10
2020/7/19,日,0,6.9,1008.4,90,5.8
2020/7/20,月,0,6.9,1008.7,80,8.5
2020/7/21,火,1,0.1,1009.1,88,10
2020/7/22,水,0,0.8,1005.7,89,10
2020/7/23,木,31.5,0,1005.8,99,10
2020/7/24,金,0,0,1007.1,94,9.8
2020/7/25,土,23.5,0.2,1008.4,98,10
2020/7/26,日,18.5,2.9,1011.3,95,10
2020/7/27,月,2,0.7,1010.9,88,10
2020/7/28,火,2,1.2,1007.1,90,10
2020/7/29,水,0,0,1010.9,87,10
2020/7/30,木,0,0,1012.9,84,10
2020/7/31,金,1,3.2,1009.2,90,10
2020/8/1,土,0.5,5.5,1009.3,77,7.8
2020/8/2,日,0,6,1011,75,5.5
2020/8/3,月,0,10.1,1011,74,3.8
2020/8/4,火,0,10.4,1012.2,77,4.3
2020/8/5,水,0,10.3,1013.4,76,3.3
2020/8/6,木,0,9.7,1010.5,79,7.8
2020/8/7,金,0,8.8,1005,71,7.5
2020/8/8,土,0,4.7,1006.1,79,8.3
2020/8/9,日,0,7.5,1006.9,77,9.5
2020/8/10,月,0,8.8,1010.3,73,10
2020/8/11,火,0,12.5,1009.7,67,2.8
2020/8/12,水,0.5,7.2,1009,79,6.8
2020/8/13,木,21.5,7.8,1006.4,82,5
2020/8/14,金,0,8.3,1005.5,78,2
2020/8/15,土,0,10,1004,76,3.8
2020/8/16,日,0,9.7,1006.2,74,7.3
2020/8/17,月,0,7,1007.2,76,7.8
2020/8/18,火,0,4.2,1007.2,71,8.8
2020/8/19,水,0,10.8,1008.3,72,5.3
2020/8/20,木,0,11.1,1008.9,74,1
2020/8/21,金,0,10.5,1009.5,72,2.3
2020/8/22,土,0,8,1008.5,75,6
2020/8/23,日,38,1.9,1006.2,87,9.8
2020/8/24,月,0,6.7,1004.9,79,5
2020/8/25,火,0,7.2,1007.7,75,6.3
2020/8/26,水,0,10.4,1009.4,77,6
2020/8/27,木,0,7.4,1009.7,79,4.5
2020/8/28,金,0,7.7,1009.3,76,4.3
2020/8/29,土,0,11.7,1007.9,73,3.8
2020/8/30,日,0,9.4,1007.1,73,4.5
2020/8/31,月,1,3.4,1008.3,80,8.3
2020/9/1,火,1,0.5,1010.4,85,10
2020/9/2,水,7.5,1.4,1010.4,93,10
2020/9/3,木,3.5,4.9,1009.2,85,8.5
2020/9/4,金,0,10.7,1010.7,76,7.5
2020/9/5,土,8.5,7.3,1009.9,79,6.5
2020/9/6,日,25.5,2.3,1010.4,94,9.8
2020/9/7,月,19,1.4,1010.7,93,9.5
2020/9/8,火,0,10.1,1012.1,73,4
2020/9/9,水,0.5,11.3,1010.2,72,2.8
2020/9/10,木,0,3.9,1008.7,80,9
2020/9/11,金,0,6,1011.8,79,6.8
2020/9/12,土,14.5,0,1011.3,97,10
2020/9/13,日,0.5,1.3,1008.4,89,7.5
2020/9/14,月,0.5,0.7,1008.2,86,10
2020/9/15,火,0.5,2.3,1010.9,82,9
2020/9/16,水,2,0.7,1011.1,81,9.8
2020/9/17,木,0,1.1,1009.2,88,9.5
2020/9/18,金,0,4.4,1004.4,74,9
2020/9/19,土,0,0,1008.4,78,8.8
2020/9/20,日,0.5,0,1011.1,80,10
2020/9/21,月,0.5,3.9,1012,78,6
2020/9/22,火,3.5,5.5,1014.5,76,9
2020/9/23,水,7.5,0,1012,95,10
2020/9/24,木,10,0,1010.9,92,10
2020/9/25,金,5.5,0,1004.1,95,10
2020/9/26,土,6,0,1005.5,97,10
2020/9/27,日,0.5,1.3,1007,88,9.8
2020/9/28,月,0,10.8,1009.7,71,3.5
2020/9/29,火,0,3.5,1009,67,10
2020/9/30,水,0,10.4,1005.1,66,3.8
2020/10/1,木,1,2.2,1008,85,7.8
2020/10/2,金,0,10.7,1013.8,72,2.8
2020/10/3,土,0,3.9,1014.3,74,8.5
2020/10/4,日,0,1.5,1009.5,77,10
2020/10/5,月,0,1.5,1003.8,81,10
2020/10/6,火,0,2.7,1012.9,52,8.3
2020/10/7,水,6,3.2,1021.3,73,8.5
2020/10/8,木,44,0,1023.2,99,10
2020/10/9,金,38,0,1022.6,99,10
2020/10/10,土,73.5,0,1014.7,100,10
2020/10/11,日,0.5,0.4,1008.5,91,10
2020/10/12,月,0,2.5,1007.9,87,9.5
2020/10/13,火,0,4.2,1009.5,79,8.5
2020/10/14,水,0,0.7,1015.1,67,10
2020/10/15,木,1,0,1017,83,10
2020/10/16,金,0,4.1,1018.4,59,9.5
2020/10/17,土,23,0,1018.7,93,10
2020/10/18,日,0.5,4.2,1019.1,83,7
2020/10/19,月,9,0,1020,89,7.5
2020/10/20,火,0,7.7,1022,75,5.3
2020/10/21,水,0,7.5,1022.3,69,4.8
2020/10/22,木,0,3,1015.2,70,10
2020/10/23,金,8.5,0,1000.6,93,10
2020/10/24,土,0,7.8,1002.8,56,5
2020/10/25,日,0,8.4,1009.7,55,1.5
2020/10/26,月,0,8.6,1013.3,65,6.3
2020/10/27,火,0,6,1016.5,65,8.3
2020/10/28,水,0,2.2,1016.4,73,8
2020/10/29,木,0,9.7,1013.4,55,4.8
2020/10/30,金,0,1.6,1015.8,47,6.3
2020/10/31,土,0,9.6,1022.7,54,0
2020/11/1,日,0,2.7,1022.6,69,7.5
2020/11/2,月,2.5,2.7,1014.1,78,8
2020/11/3,火,4.5,0.2,1004.4,92,10
2020/11/4,水,0,8.6,1011.7,47,2
2020/11/5,木,0,9.2,1021.2,56,0.5
2020/11/6,金,0,0.4,1022,67,9.8
2020/11/7,土,0,1.2,1012.2,77,9.5
2020/11/8,日,2.5,1.1,1006.3,75,10
2020/11/9,月,0,2.9,1010.5,44,4.3
2020/11/10,火,0,8.7,1016.9,50,2.8
2020/11/11,水,0,9.1,1025.6,48,1.5
2020/11/12,木,0,0.5,1029.7,63,7.3
2020/11/13,金,0,8.7,1021.9,67,3.8
2020/11/14,土,0,9.3,1023,56,0
2020/11/15,日,0,9.2,1025.7,65,3.8
2020/11/16,月,0,9.2,1020.3,66,3
2020/11/17,火,0,8.5,1024.8,62,0.5
2020/11/18,水,0,8.3,1022.3,77,5.3
2020/11/19,木,0,7,1015.6,74,8.5
2020/11/20,金,0,0.4,1004.9,73,10
2020/11/21,土,0,9.1,1012.3,46,2.5
2020/11/22,日,0,8,1015.7,66,1.3
2020/11/23,月,0,5.6,1011.2,54,7.5
2020/11/24,火,0,0,1021.4,56,10
2020/11/25,水,5,0,1019.6,94,10
2020/11/26,木,0,8,1017.9,81,4.8
2020/11/27,金,0,1.2,1016.5,78,9.5
2020/11/28,土,0,8.8,1010.5,56,5
2020/11/29,日,0,1.2,1018.9,56,8
2020/11/30,月,0,6.8,1020.6,69,6.3
2020/12/1,火,0,8.8,1024.4,66,0.8
2020/12/2,水,8,0,1022.8,81,9.8
2020/12/3,木,0,0,1014.5,91,8
2020/12/4,金,0,7.1,1019.4,61,5.3
2020/12/5,土,3.5,0,1021.7,86,10
2020/12/6,日,0,5.8,1021.1,80,4.8
2020/12/7,月,0,8.8,1016.8,71,0.8
2020/12/8,火,0,6.7,1014.4,66,5
2020/12/9,水,0,0.7,1020.2,61,10
2020/12/10,木,0,0.4,1016.1,72,7.5
2020/12/11,金,0,4.3,1013.6,76,5.5
2020/12/12,土,0,2.3,1005.4,70,10
2020/12/13,日,0,6.2,1006.2,72,3.5
2020/12/14,月,0,4.6,1004.8,62,8.5
2020/12/15,火,0,7,1007.8,45,4.5
2020/12/16,水,0,6.1,1009,43,2.8
2020/12/17,木,0,8.9,1013.9,42,0.3
2020/12/18,金,0,8.6,1014.4,52,2.5
2020/12/19,土,0,2.2,1012.4,48,5.8
2020/12/20,日,0,8.9,1016.7,45,0.8
2020/12/21,月,0,9,1018.9,40,0
2020/12/22,火,0,8,1018.9,61,1.8
2020/12/23,水,0,8.9,1017.7,54,2.5
2020/12/24,木,0,1.7,1009.4,56,7.5
2020/12/25,金,0,8.3,1004.8,49,5.5
2020/12/26,土,0,8.8,1015.8,51,2.3
2020/12/27,日,0,6.8,1019.7,59,7.8
2020/12/28,月,0,4,1015.9,72,5.5
2020/12/29,火,0,4.5,1014.2,66,5.8
2020/12/30,水,1.5,1.6,992.5,68,10
2020/12/31,木,0,8.9,1006,34,0.8
